TimeEDT,TemperatureF,Dew PointF,Humidity,Sea Level PressureIn,VisibilityMPH,Wind Direction,Wind SpeedMPH,Gust SpeedMPH,PrecipitationIn,Events,Conditions,WindDirDegrees,DateUTC
12:58 AM,64.4,63.9,98,29.72,10.0,SE,8.1,-,N/A,,Overcast,140,2013-09-22 04:58:00
1:58 AM,65.1,64.0,96,29.68,10.0,SSE,8.1,-,N/A,,Overcast,150,2013-09-22 05:58:00
2:58 AM,65.1,63.7,95,29.65,10.0,SSE,12.7,-,N/A,,Overcast,150,2013-09-22 06:58:00
3:50 AM,66.2,64.4,94,29.63,10.0,SSE,12.7,-,N/A,Rain,Light Rain,160,2013-09-22 07:50:00
3:58 AM,66.0,64.2,94,29.63,7.0,SSE,12.7,-,0.01,Rain,Light Rain,150,2013-09-22 07:58:00
4:13 AM,66.2,64.4,94,29.62,7.0,SSE,12.7,-,N/A,Rain,Light Rain,150,2013-09-22 08:13:00
4:28 AM,66.2,64.4,94,29.61,10.0,SSE,10.4,-,N/A,,Mostly Cloudy,150,2013-09-22 08:28:00
4:31 AM,66.2,64.4,94,29.60,10.0,SSE,10.4,-,N/A,,Overcast,150,2013-09-22 08:31:00
4:58 AM,65.5,64.6,97,29.62,10.0,SSE,9.2,-,0.00,,Overcast,150,2013-09-22 08:58:00
5:48 AM,66.2,64.4,94,29.59,10.0,SE,11.5,-,N/A,Rain,Light Rain,140,2013-09-22 09:48:00
5:58 AM,65.7,64.4,96,29.59,10.0,SE,13.8,-,0.01,Rain,Light Rain,140,2013-09-22 09:58:00
6:16 AM,66.2,64.4,94,29.59,2.5,South,20.7,27.6,N/A,Rain-Thunderstorm,Rain,170,2013-09-22 10:16:00
6:58 AM,65.1,64.2,97,29.62,3.0,West,10.4,-,0.51,Rain,Rain,260,2013-09-22 10:58:00
7:58 AM,62.4,61.5,97,29.64,6.0,WSW,6.9,-,0.07,Rain,Light Rain,240,2013-09-22 11:58:00
8:58 AM,62.4,61.9,98,29.65,10.0,SW,4.6,-,0.04,,Overcast,220,2013-09-22 12:58:00
9:58 AM,63.1,61.3,94,29.66,10.0,WSW,6.9,-,N/A,,Overcast,240,2013-09-22 13:58:00
10:58 AM,64.4,60.8,88,29.65,10.0,WSW,8.1,-,N/A,,Mostly Cloudy,250,2013-09-22 14:58:00
11:58 AM,65.7,59.2,80,29.65,10.0,WSW,9.2,-,N/A,,Mostly Cloudy,240,2013-09-22 15:58:00
12:58 PM,70.3,56.8,62,29.65,10.0,West,10.4,-,N/A,,Mostly Cloudy,270,2013-09-22 16:58:00
1:58 PM,71.1,52.3,52,29.64,10.0,West,11.5,-,N/A,,Mostly Cloudy,260,2013-09-22 17:58:00
2:58 PM,72.7,51.1,47,29.65,10.0,West,11.5,-,N/A,,Mostly Cloudy,270,2013-09-22 18:58:00
3:58 PM,69.8,48.6,47,29.65,10.0,West,10.4,20.7,N/A,,Mostly Cloudy,280,2013-09-22 19:58:00
4:58 PM,68.7,48.9,49,29.66,10.0,West,11.5,-,N/A,,Scattered Clouds,270,2013-09-22 20:58:00
5:58 PM,65.3,49.3,56,29.68,10.0,West,8.1,-,N/A,,Scattered Clouds,270,2013-09-22 21:58:00
6:58 PM,61.3,50.0,66,29.71,10.0,NW,13.8,19.6,N/A,,Mostly Cloudy,310,2013-09-22 22:58:00
7:58 PM,58.8,47.5,66,29.74,10.0,WNW,12.7,23.0,N/A,,Mostly Cloudy,300,2013-09-22 23:58:00
8:58 PM,56.1,44.1,64,29.77,10.0,WNW,10.4,-,N/A,,Partly Cloudy,290,2013-09-23 00:58:00
9:58 PM,54.7,44.2,68,29.78,10.0,WNW,13.8,-,N/A,,Clear,300,2013-09-23 01:58:00
10:58 PM,53.4,43.2,68,29.80,10.0,WNW,12.7,-,N/A,,Clear,290,2013-09-23 02:58:00
11:58 PM,52.0,41.5,68,29.80,10.0,WNW,13.8,-,N/A,,Clear,290,2013-09-23 03:58:00